DW6927 Weather Reports


Display with metric or nautical units.
time (UTC)temp
F
wind
direction
speed
MPH
gust
MPH
rain 1hr
in
rain 24hr
in
rain mn
in
humidity
%
barometer
mb
20260831014052 74 0 0.0 0.0 0.00 0.00 0.00 89 1021.5
20260831013553 74 0 0.0 0.0 0.00 0.00 0.00 88 1021.5
20260831013112 74 0 0.0 0.0 0.00 0.00 0.00 88 1021.2
20260831012553 74 0 0.0 0.0 0.00 0.00 0.00 88 1021.1
20260831012056 74 0 0.0 0.0 0.00 0.00 0.00 88 1021.1
20260831011559 74 0 0.0 0.0 0.00 0.00 0.00 87 1021.0
20260831011052 74 0 0.0 0.0 0.00 0.00 0.00 88 1021.0
20260831010552 74 0 0.0 0.0 0.00 0.00 0.00 87 1021.0
20260831010130 75 0 0.0 0.0 0.00 0.00 0.00 87 1020.9
20260831005552 75 0 0.0 0.0 0.00 0.00 0.00 87 1020.8
20260831005052 75 0 0.0 0.0 0.00 0.00 0.00 87 1020.9
20260831004558 75 0 0.0 0.0 0.00 0.00 0.00 87 1020.9
20260831004053 75 0 0.0 0.0 0.00 0.00 0.00 87 1020.8
20260831003555 76 0 0.0 0.0 0.00 0.00 0.00 86 1020.7
20260831003055 76 0 0.0 0.0 0.00 0.00 0.00 86 1020.7
20260831002552 76 0 0.0 0.0 0.00 0.00 0.00 86 1020.6
20260831002053 76 0 0.0 0.0 0.00 0.00 0.00 85 1020.5
20260831001607 77 0 0.0 0.0 0.00 0.00 0.00 85 1020.5
20260831001053 77 0 0.0 0.0 0.00 0.00 0.00 85 1020.5
20260831000549 77 0 0.0 0.0 0.00 0.00 0.00 85 1020.5
20260831000106 77 0 0.0 0.0 0.00 0.00 0.00 85 1020.5
20260830235552 78 0 0.0 0.0 0.00 0.00 0.00 84 1020.4
20260830235052 78 0 0.0 0.0 0.00 0.00 0.00 84 1020.5
20260830234600 78 0 0.0 0.0 0.00 0.00 0.00 84 1020.5
20260830234052 78 0 0.0 0.0 0.00 0.00 0.00 83 1020.5
20260830233552 78 0 0.0 0.0 0.00 0.00 0.00 83 1020.5
20260830233104 78 0 0.0 0.0 0.00 0.00 0.00 83 1020.5
20260830232556 78 0 0.0 0.0 0.00 0.00 0.00 83 1020.4
20260830232053 78 0 0.0 0.0 0.00 0.00 0.00 83 1020.6
20260830231558 78 0 0.0 0.0 0.00 0.00 0.00 82 1020.3
20260830231056 79 0 0.0 0.0 0.00 0.00 0.00 82 1020.3
20260830230553 79 0 0.0 0.0 0.00 0.00 0.00 82 1020.5
20260830225553 79 0 0.0 0.0 0.00 0.00 0.00 81 1020.3
20260830225053 79 0 0.0 0.0 0.00 0.00 0.00 80 1020.4
20260830224606 79 0 0.0 0.0 0.00 0.00 0.00 80 1020.2
20260830224053 79 0 0.0 0.0 0.00 0.00 0.00 79 1020.2
20260830223553 80 0 0.0 0.0 0.00 0.00 0.00 78 1020.2
20260830223104 80 0 0.0 0.0 0.00 0.00 0.00 78 1020.4
20260830222553 81 0 0.0 0.0 0.00 0.00 0.00 77 1020.3
20260830222054 81 0 0.0 0.0 0.00 0.00 0.00 76 1020.3
20260830221606 81 0 0.0 0.0 0.00 0.00 0.00 76 1020.5
20260830221053 81 0 0.0 0.0 0.00 0.00 0.00 75 1020.3
20260830220553 81 0 0.0 0.0 0.00 0.00 0.00 73 1020.3
20260830220124 81 0 0.0 0.0 0.00 0.00 0.00 73 1020.3
20260830215552 81 0 0.0 0.0 0.00 0.00 0.00 75 1020.4
20260830215055 81 0 0.0 0.0 0.00 0.00 0.00 75 1020.4
20260830214606 81 0 0.0 0.0 0.00 0.00 0.00 74 1020.4
20260830214049 81 0 0.0 0.0 0.00 0.00 0.00 78 1020.5
20260830213554 81 0 0.0 0.0 0.00 0.00 0.00 79 1020.4
20260830213102 81 0 0.0 0.0 0.00 0.00 0.00 78 1020.3
20260830212553 81 0 0.0 0.0 0.00 0.00 0.00 76 1020.3
20260830212054 81 0 0.0 0.0 0.00 0.00 0.00 78 1020.4
20260830211603 81 0 0.0 0.0 0.00 0.00 0.00 77 1020.4
20260830211052 81 0 0.0 0.0 0.00 0.00 0.00 77 1020.3
20260830210552 81 0 0.0 0.0 0.00 0.00 0.00 77 1020.2
20260830210111 81 0 0.0 0.0 0.00 0.00 0.00 76 1020.4
20260830205552 81 0 0.0 1.0 0.00 0.00 0.00 76 1020.4
20260830205052 81 0 0.0 2.0 0.00 0.00 0.00 75 1020.4
20260830204555 82 0 1.0 2.0 0.00 0.00 0.00 74 1020.5
20260830204053 82 221 0.0 2.0 0.00 0.00 0.00 74 1020.5
20260830203549 83 0 0.0 2.0 0.00 0.00 0.00 72 1020.6
20260830203120 84 221 0.0 2.0 0.00 0.00 0.00 70 1020.5
20260830202553 85 0 0.0 3.0 0.00 0.00 0.00 70 1020.7
20260830202053 86 0 1.0 3.0 0.00 0.00 0.00 67 1020.8
20260830201602 86 227 0.0 3.0 0.00 0.00 0.00 63 1020.7
20260830201052 87 0 0.0 3.0 0.00 0.00 0.00 62 1020.6
20260830200552 87 145 0.0 3.0 0.00 0.00 0.00 64 1020.8
20260830200103 87 0 0.0 3.0 0.00 0.00 0.00 66 1020.9
20260830195549 86 0 0.0 3.0 0.00 0.00 0.00 63 1020.9
20260830195049 86 0 0.0 3.0 0.00 0.00 0.00 63 1020.9
20260830194557 86 120 1.0 3.0 0.00 0.00 0.00 63 1021.0
20260830194053 86 101 0.0 2.0 0.00 0.00 0.00 63 1021.1
20260830193551 86 0 0.0 3.0 0.00 0.00 0.00 68 1021.1
20260830193059 86 0 0.0 3.0 0.00 0.00 0.00 66 1021.2
20260830192550 86 104 0.0 1.0 0.00 0.00 0.00 69 1021.3
20260830192050 85 0 0.0 0.0 0.00 0.00 0.00 69 1021.6
20260830191600 85 0 0.0 0.0 0.00 0.00 0.00 71 1021.5
20260830191050 84 0 0.0 0.0 0.00 0.00 0.00 70 1021.6
20260830190550 84 0 0.0 0.0 0.00 0.00 0.00 71 1021.7
20260830190058 84 0 0.0 0.0 0.00 0.00 0.00 71 1021.9
20260830185554 83 0 0.0 2.0 0.00 0.00 0.00 69 1021.8
20260830185052 83 0 0.0 3.0 0.00 0.00 0.00 69 1021.8
20260830184608 83 0 0.0 6.0 0.00 0.00 0.00 71 1022.0
20260830184055 83 0 1.0 8.0 0.00 0.00 0.00 68 1022.0
20260830183554 83 120 1.0 8.0 0.00 0.00 0.00 67 1022.1
20260830183123 84 160 1.0 7.0 0.00 0.00 0.00 68 1022.1
20260830182554 84 109 1.0 5.0 0.00 0.00 0.00 68 1022.2
20260830182055 84 0 0.0 2.0 0.00 0.00 0.00 71 1022.3
20260830181618 83 0 1.0 2.0 0.00 0.00 0.00 69 1022.5
20260830181055 83 0 0.0 2.0 0.00 0.00 0.00 75 1022.5
20260830180554 82 0 0.0 4.0 0.00 0.00 0.00 71 1022.5
20260830180108 82 104 0.0 6.0 0.00 0.00 0.00 72 1022.6
20260830175552 82 68 1.0 6.0 0.00 0.47 0.00 74 1022.6
20260830175051 82 130 0.0 2.0 0.00 0.47 0.00 75 1022.6
20260830174559 82 0 0.0 2.0 0.00 0.47 0.00 72 1022.7
20260830174054 82 171 0.0 1.0 0.00 0.47 0.00 75 1022.7
20260830173554 82 0 0.0 5.0 0.00 0.47 0.00 77 1022.8
20260830173126 83 0 1.0 6.0 0.00 0.47 0.00 72 1023.1
20260830172554 83 117 3.0 6.0 0.00 0.47 0.00 70 1023.0
20260830172054 83 138 0.0 4.0 0.00 0.47 0.00 77 1023.0
20260830171604 83 65 1.0 4.0 0.00 0.47 0.00 74 1023.0
20260830171054 83 44 0.0 4.0 0.00 0.47 0.00 75 1023.1
20260830170554 83 157 2.0 4.0 0.00 0.47 0.00 74 1023.2
20260830170103 82 0 1.0 6.0 0.00 0.47 0.00 76 1023.4
20260830165555 82 49 2.0 6.0 0.00 0.62 0.00 77 1023.5
20260830165055 82 104 0.0 8.0 0.00 0.62 0.00 78 1023.4
20260830164557 81 0 2.0 9.0 0.00 0.62 0.00 75 1023.6
20260830164051 81 80 3.0 9.0 0.00 0.62 0.00 74 1023.5
20260830163554 81 74 1.0 6.0 0.00 0.62 0.00 78 1023.6
20260830163106 81 182 1.0 6.0 0.00 0.62 0.00 80 1023.6
20260830162550 80 20 2.0 5.0 0.00 0.62 0.00 77 1023.5
20260830162051 80 113 1.0 4.0 0.00 0.62 0.00 77 1023.7
20260830161633 80 322 0.0 6.0 0.00 0.62 0.00 79 1023.7
20260830161050 81 131 1.0 6.0 0.00 0.62 0.00 79 1023.9
20260830160553 80 94 3.0 6.0 0.00 0.62 0.00 78 1024.0
20260830155554 80 0 1.0 4.0 0.00 0.62 0.00 81 1024.0
20260830155054 79 0 0.0 4.0 0.00 0.62 0.00 85 1024.0
20260830154556 79 147 1.0 3.0 0.00 0.62 0.00 86 1024.1
20260830154058 78 0 1.0 3.0 0.00 0.62 0.00 83 1024.0
20260830153556 78 0 0.0 2.0 0.00 0.62 0.00 83 1024.0
20260830153106 78 0 0.0 3.0 0.00 0.62 0.00 84 1023.9
20260830152551 78 149 0.0 3.0 0.00 0.62 0.00 84 1023.8
20260830152051 77 71 1.0 3.0 0.00 0.62 0.00 86 1023.9
20260830151603 77 115 0.0 3.0 0.00 0.62 0.00 87 1024.1
20260830151055 77 0 0.0 3.0 0.00 0.62 0.00 87 1024.1
20260830150554 77 36 1.0 3.0 0.00 0.62 0.00 85 1024.2
20260830150104 77 16 1.0 6.0 0.00 0.62 0.00 85 1024.1
20260830145555 77 308 3.0 6.0 0.00 0.62 0.00 85 1024.3
20260830145051 77 79 1.0 4.0 0.00 0.62 0.00 87 1024.1
20260830144557 77 89 0.0 6.0 0.00 0.62 0.00 88 1024.1
20260830144055 77 69 1.0 6.0 0.00 0.62 0.00 88 1024.0
20260830143551 76 90 0.0 4.0 0.00 0.62 0.00 89 1024.0
20260830143106 76 0 0.0 4.0 0.00 0.62 0.00 90 1024.0
20260830142555 76 265 2.0 4.0 0.00 0.62 0.00 90 1023.8
20260830142051 76 0 0.0 0.0 0.00 0.62 0.00 93 1023.8
20260830141600 76 0 0.0 0.0 0.00 0.62 0.00 96 1023.9
20260830141053 75 0 0.0 0.0 0.00 0.62 0.00 97 1023.9
20260830140556 74 0 0.0 0.0 0.00 0.62 0.00 97 1023.9
20260830140108 74 0 0.0 0.0 0.00 0.62 0.00 98 1024.0
20260830135555 74 0 0.0 0.0 0.00 0.62 0.00 98 1024.0
20260830135054 73 0 0.0 0.0 0.00 0.62 0.00 98 1024.0
20260830134603 73 0 0.0 0.0 0.00 0.62 0.00 99 1023.8
20260830134051 73 0 0.0 0.0 0.00 0.62 0.00 99 1023.9
20260830133554 73 0 0.0 0.0 0.00 0.62 0.00 99 1023.9
20260830133104 72 0 0.0 0.0 0.00 0.62 0.00 99 1023.8
20260830132552 71 0 0.0 0.0 0.00 0.62 0.00 99 1023.8
20260830132050 71 0 0.0 0.0 0.00 0.62 0.00 99 1023.8
20260830131615 70 0 0.0 4.0 0.00 0.62 0.00 99 1023.7
20260830131054 70 0 0.0 4.0 0.00 0.62 0.00 99 1023.7
20260830130557 69 0 2.0 4.0 0.00 0.62 0.00 99 1023.6
20260830130104 69 78 0.0 3.0 0.00 0.62 0.00 99 1023.5
20260830125554 68 0 0.0 2.0 0.00 0.62 0.00 99 1023.6
20260830125054 68 59 0.0 2.0 0.00 0.62 0.00 98 1023.5
20260830124604 68 0 0.0 3.0 0.00 0.62 0.00 98 1023.4
20260830124051 68 0 0.0 3.0 0.00 0.62 0.00 98 1023.4
20260830123552 68 0 0.0 1.0 0.00 0.62 0.00 98 1023.4
20260830123105 67 0 0.0 0.0 0.00 0.62 0.00 98 1023.4
20260830122554 67 0 0.0 0.0 0.00 0.62 0.00 98 1023.4
20260830122054 67 0 0.0 0.0 0.00 0.62 0.00 98 1023.2
20260830121559 67 0 0.0 0.0 0.00 0.62 0.00 98 1022.9
20260830121053 67 0 0.0 0.0 0.00 0.62 0.00 98 1022.9
20260830120553 66 0 0.0 0.0 0.00 0.62 0.00 98 1023.0
20260830120110 66 0 0.0 0.0 0.00 0.62 0.00 98 1022.9
20260830115552 66 0 0.0 0.0 0.00 0.62 0.00 98 1022.8
20260830115054 66 0 0.0 0.0 0.00 0.62 0.00 98 1022.8
20260830114605 66 0 0.0 0.0 0.00 0.62 0.00 98 1022.7
20260830114050 66 0 0.0 0.0 0.00 0.62 0.00 98 1022.7
20260830113554 67 0 0.0 0.0 0.00 0.62 0.00 98 1022.6
20260830113102 67 0 0.0 0.0 0.00 0.62 0.00 98 1022.7
20260830112553 67 0 0.0 0.0 0.00 0.62 0.00 98 1022.7
20260830112054 67 0 0.0 0.0 0.00 0.62 0.00 98 1022.5
20260830111600 67 0 0.0 0.0 0.00 0.62 0.00 98 1022.3
20260830111056 67 0 0.0 0.0 0.00 0.62 0.00 98 1022.4
20260830110553 67 0 0.0 0.0 0.00 0.62 0.00 98 1022.3
20260830110142 67 0 0.0 0.0 0.00 0.62 0.00 98 1022.3
20260830105554 67 0 0.0 0.0 0.00 0.62 0.00 98 1022.3
20260830105054 67 0 0.0 0.0 0.00 0.62 0.00 97 1022.2
20260830104600 67 0 0.0 0.0 0.00 0.62 0.00 97 1022.1
20260830104055 67 0 0.0 0.0 0.00 0.62 0.00 98 1022.1
20260830103555 67 0 0.0 0.0 0.00 0.62 0.00 98 1022.2
20260830103058 67 0 0.0 0.0 0.00 0.62 0.00 98 1022.2
20260830102553 67 0 0.0 0.0 0.00 0.62 0.00 97 1022.1
20260830102055 67 0 0.0 0.0 0.00 0.62 0.00 97 1022.0
20260830101556 67 0 0.0 0.0 0.00 0.62 0.00 98 1022.0
20260830101054 68 0 0.0 0.0 0.00 0.62 0.00 98 1022.0
20260830100554 68 0 0.0 0.0 0.00 0.62 0.00 98 1022.0
20260830100056 68 0 0.0 0.0 0.00 0.62 0.00 98 1022.0
20260830095554 68 0 0.0 0.0 0.00 0.62 0.00 98 1021.9
20260830095054 68 0 0.0 0.0 0.00 0.62 0.00 98 1022.0
20260830094605 68 0 0.0 0.0 0.00 0.62 0.00 98 1022.0
20260830094055 68 0 0.0 0.0 0.00 0.62 0.00 98 1022.0
20260830093554 68 0 0.0 0.0 0.00 0.62 0.00 98 1022.1
20260830093139 68 0 0.0 0.0 0.00 0.62 0.00 98 1022.1
20260830092555 68 0 0.0 0.0 0.00 0.62 0.00 98 1022.1
20260830092053 68 0 0.0 0.0 0.00 0.62 0.00 98 1022.0
20260830091609 68 0 0.0 0.0 0.00 0.62 0.00 98 1022.0
20260830091054 68 0 0.0 0.0 0.00 0.62 0.00 97 1022.0
20260830090555 68 0 0.0 0.0 0.00 0.62 0.00 97 1022.0
20260830090107 68 0 0.0 0.0 0.00 0.62 0.00 98 1022.0
20260830085553 68 0 0.0 0.0 0.00 0.62 0.00 98 1022.1
20260830085053 68 0 0.0 0.0 0.00 0.62 0.00 98 1022.0
20260830084601 68 0 0.0 0.0 0.00 0.62 0.00 98 1022.1
20260830084054 68 0 0.0 0.0 0.00 0.62 0.00 98 1022.1
20260830083556 68 0 0.0 0.0 0.00 0.62 0.00 98 1022.0
20260830083110 68 0 0.0 0.0 0.00 0.62 0.00 98 1022.0
20260830082554 67 0 0.0 0.0 0.00 0.62 0.00 98 1022.1
20260830082053 67 0 0.0 0.0 0.00 0.62 0.00 97 1022.2
20260830081608 67 0 0.0 0.0 0.00 0.62 0.00 97 1022.1
20260830081054 67 0 0.0 0.0 0.00 0.62 0.00 97 1022.1
20260830080554 67 0 0.0 0.0 0.00 0.62 0.00 97 1021.9
20260830075553 68 0 0.0 0.0 0.00 0.62 0.00 97 1021.9
20260830075054 68 0 0.0 0.0 0.00 0.62 0.00 97 1021.8
20260830074650 68 0 0.0 0.0 0.00 0.62 0.00 97 1021.9
20260830074053 68 0 0.0 0.0 0.00 0.62 0.00 97 1021.9
20260830073553 68 0 0.0 0.0 0.00 0.62 0.00 97 1021.8
20260830073108 69 0 0.0 0.0 0.00 0.62 0.00 97 1021.9
20260830072554 69 0 0.0 0.0 0.00 0.62 0.00 98 1021.7
20260830072058 69 0 0.0 0.0 0.00 0.62 0.00 97 1021.8
20260830071609 69 0 0.0 0.0 0.00 0.62 0.00 97 1021.9
20260830071053 69 0 0.0 0.0 0.00 0.62 0.00 97 1021.9
20260830070554 69 0 0.0 0.0 0.00 0.62 0.00 97 1022.0
20260830070058 69 0 0.0 0.0 0.00 0.62 0.00 97 1022.0
20260830065553 69 0 0.0 0.0 0.00 0.62 0.00 97 1022.1
20260830065054 69 0 0.0 0.0 0.00 0.62 0.00 97 1022.1
20260830064600 69 0 0.0 0.0 0.00 0.62 0.00 97 1022.2
20260830064055 69 0 0.0 0.0 0.00 0.62 0.00 97 1022.2
20260830063555 69 0 0.0 0.0 0.00 0.62 0.00 97 1022.1
20260830063058 69 0 0.0 0.0 0.00 0.62 0.00 97 1022.1
20260830062554 69 0 0.0 0.0 0.00 0.62 0.00 97 1022.2
20260830062054 69 0 0.0 0.0 0.00 0.62 0.00 97 1022.3
20260830061557 69 0 0.0 0.0 0.00 0.62 0.00 97 1022.2
20260830061055 69 0 0.0 0.0 0.00 0.62 0.00 97 1022.3
20260830060554 69 0 0.0 0.0 0.00 0.62 0.00 97 1022.5
20260830060108 69 0 0.0 0.0 0.00 0.62 0.00 97 1022.5
20260830055554 70 0 0.0 0.0 0.00 0.62 0.00 97 1022.3
20260830055054 70 0 0.0 0.0 0.00 0.62 0.00 97 1022.3
20260830054603 70 0 0.0 0.0 0.00 0.62 0.00 97 1022.5
20260830054053 70 0 0.0 0.0 0.00 0.62 0.00 97 1022.5
20260830053554 70 0 0.0 0.0 0.00 0.62 0.00 97 1022.6
20260830053103 70 0 0.0 0.0 0.00 0.62 0.00 97 1022.6
20260830052550 70 0 0.0 0.0 0.00 0.62 0.00 97 1022.6
20260830052050 70 0 0.0 0.0 0.00 0.62 0.00 97 1022.7
20260830051605 69 0 0.0 0.0 0.00 0.62 0.00 97 1022.8
20260830051054 69 0 0.0 0.0 0.00 0.62 0.00 97 1022.9
20260830050554 69 0 0.0 0.0 0.00 0.62 0.00 97 1022.8
20260830050111 69 0 0.0 0.0 0.00 0.62 0.00 97 1022.7
20260830045553 69 0 0.0 0.0 0.00 0.62 0.00 97 1022.7
20260830045050 69 0 0.0 0.0 0.00 0.62 0.00 97 1022.6
20260830044600 69 0 0.0 0.0 0.00 0.62 0.00 97 1022.7
20260830044054 69 0 0.0 0.0 0.00 0.62 0.00 97 1022.7
20260830043555 69 0 0.0 0.0 0.00 0.62 0.00 97 1022.7
20260830043107 70 0 0.0 0.0 0.00 0.62 0.00 97 1022.7
20260830042551 70 0 0.0 0.0 0.00 0.62 0.00 96 1022.7
20260830042051 70 0 0.0 0.0 0.00 0.62 0.00 96 1022.7
20260830041643 70 0 0.0 0.0 0.00 0.62 0.00 96 1022.7
20260830041053 70 0 0.0 0.0 0.00 0.62 0.00 96 1022.7
20260830040553 70 0 0.0 0.0 0.00 0.62 0.00 96 1022.6
20260830035554 70 0 0.0 0.0 0.00 0.62 0.62 96 1022.5
20260830035054 70 0 0.0 0.0 0.00 0.62 0.62 96 1022.6
20260830034559 70 0 0.0 0.0 0.00 0.62 0.62 96 1022.6
20260830034050 70 0 0.0 0.0 0.00 0.62 0.62 96 1022.7
20260830033550 70 0 0.0 0.0 0.00 0.62 0.62 96 1022.7
20260830033103 71 0 0.0 0.0 0.00 0.62 0.62 96 1022.7
20260830032558 71 0 0.0 0.0 0.00 0.62 0.62 97 1022.6
20260830032054 71 0 0.0 0.0 0.00 0.62 0.62 97 1022.7
20260830031606 71 0 0.0 0.0 0.00 0.62 0.62 97 1022.7
20260830031055 71 0 0.0 0.0 0.00 0.62 0.62 97 1022.5
20260830030550 71 0 0.0 0.0 0.00 0.62 0.62 96 1022.6
20260830025554 71 0 0.0 0.0 0.00 0.62 0.62 96 1022.5
20260830025057 70 0 0.0 0.0 0.00 0.62 0.62 96 1022.5
20260830024607 70 0 0.0 0.0 0.00 0.62 0.62 96 1022.5
20260830024055 70 0 0.0 0.0 0.00 0.62 0.62 96 1022.3
20260830023550 70 0 0.0 0.0 0.00 0.62 0.62 96 1022.4
20260830023120 71 0 0.0 0.0 0.00 0.62 0.62 96 1022.2
20260830022551 71 0 0.0 0.0 0.00 0.62 0.62 96 1022.3
20260830022051 71 0 0.0 0.0 0.00 0.62 0.62 96 1022.2
20260830021609 71 0 0.0 0.0 0.00 0.62 0.62 95 1022.2
20260830021054 71 0 0.0 0.0 0.00 0.62 0.62 95 1022.0
20260830020550 71 0 0.0 0.0 0.00 0.62 0.62 96 1021.7
20260830020116 71 0 0.0 0.0 0.00 0.62 0.62 96 1021.6
20260830015554 71 0 0.0 0.0 0.00 0.62 0.62 96 1021.5
20260830015050 71 0 0.0 0.0 0.00 0.62 0.62 95 1021.5
20260830014602 71 0 0.0 0.0 0.00 0.62 0.62 95 1021.6